Windom, MN

4:24 PM CDT on September 20, 2017 (GMT -0500)
Windom Municipal

Weather History for KMWM - January, 2014

Change the Weather History Date:

Thursday, January 23, 2014

  Actual Average Record
Temperature  
Mean Temperature -2 °F -  
Max Temperature 8 °F 26 °F 78 °F (1999)
Min Temperature -13 °F 6 °F -24 °F (1963)
Degree Days  
Heating Degree Days 68    
Moisture  
Dew Point -11 °F    
Average Humidity 74    
Maximum Humidity 78    
Minimum Humidity 56    
Precipitation  
Precipitation 0.00 in - - ()
Sea Level Pressure  
Sea Level Pressure 30.54 in    
Wind  
Wind Speed 18 mph (West)    
Max Wind Speed 25 mph    
Max Gust Speed 32 mph    
Visibility 8 miles    
Events Snow    
Averages and records for this station are not official NWS values.
T = Trace of Precipitation, MM = Missing Value Source: NWS Daily Summary

Daily Weather History Graph

Daily Weather History Graph

Search for Another Location

Airport or City:

Trip Planner

Search our weather history database for the weather conditions in past years. The results will help you decide how hot, cold, wet, or windy it might be!

Date:

Astronomy

Jan. 23, 2014 Rise Set
Actual Time 7:46 AM CST 5:18 PM CST
Civil Twilight 7:14 AM CST 5:50 PM CST
Nautical Twilight 6:39 AM CST 6:25 PM CST
Astronomical Twilight 6:05 AM CST 6:59 PM CST
Moon 12:06 AM CST (1/23) 11:06 AM CST (1/23)
Length of Visible Light 10h 35m
Length of Day
9h 32m
Waning Gibbous, 55% of the Moon is Illuminated
Jan 23
Waning Gibbous
Jan 23
Last Quarter
Jan 30
New
Feb 6
First Quarter
Feb 14
Full

Hourly Weather History & Observations

Time (CST) Temp. Windchill Dew Point Humidity Pressure Visibility Wind Dir Wind Speed Gust Speed Precip Events Conditions
12:13 AM -9.4 °F -36.3 °F -14.8 °F 77% 30.51 in 4.0 mi NW 24.2 mph - N/A   Haze
12:32 AM -9.4 °F -35.2 °F -14.8 °F 77% 30.51 in 4.0 mi NW 21.9 mph - N/A   Haze
12:53 AM -9.4 °F -36.3 °F -14.8 °F 77% 30.51 in 3.0 mi NW 24.2 mph - N/A   Haze
1:12 AM -9.4 °F -36.3 °F -14.8 °F 77% 30.51 in 4.0 mi NW 24.2 mph 31.1 mph N/A   Haze
1:32 AM -9.4 °F -35.8 °F -14.8 °F 77% 30.52 in 4.0 mi NW 23.0 mph - N/A   Haze
1:53 AM -9.4 °F -36.8 °F -14.8 °F 77% 30.53 in 2.0 mi NW 25.3 mph - N/A   Haze
2:12 AM -9.4 °F -34.7 °F -14.8 °F 77% 30.54 in 1.5 mi NNW 20.7 mph 31.1 mph N/A Snow Light Snow
2:32 AM -9.4 °F -35.8 °F -14.8 °F 77% 30.54 in 2.5 mi NW 23.0 mph 29.9 mph N/A   Haze
2:53 AM -11.2 °F -37.0 °F -16.6 °F 77% 30.56 in 4.0 mi NW 20.7 mph 27.6 mph N/A   Haze
3:12 AM -11.2 °F -36.4 °F -16.6 °F 77% 30.57 in 5.0 mi NW 19.6 mph 26.5 mph N/A   Overcast
3:32 AM -11.2 °F -37.0 °F -16.6 °F 77% 30.57 in 7.0 mi NW 20.7 mph - N/A   Overcast
3:53 AM -11.2 °F -37.0 °F -16.6 °F 77% 30.57 in 3.0 mi NW 20.7 mph - N/A   Haze
4:12 AM -11.2 °F -38.7 °F -16.6 °F 77% 30.58 in 2.5 mi NW 24.2 mph 27.6 mph N/A   Haze
4:32 AM -11.2 °F -38.2 °F -16.6 °F 77% 30.58 in 2.5 mi NW 23.0 mph - N/A   Haze
4:53 AM -11.2 °F -37.6 °F -16.6 °F 77% 30.59 in 3.0 mi NW 21.9 mph 28.8 mph N/A   Haze
5:12 AM -11.2 °F -37.6 °F -16.6 °F 77% 30.59 in 3.0 mi NNW 21.9 mph 29.9 mph N/A   Haze
5:33 AM -11.2 °F -38.2 °F -18.4 °F 70% 30.60 in 4.0 mi NNW 23.0 mph 29.9 mph N/A   Haze
5:52 AM -11.2 °F -37.6 °F -18.4 °F 70% 30.62 in 5.0 mi NNW 21.9 mph - N/A   Haze
6:13 AM -13.0 °F -39.4 °F -18.4 °F 77% 30.62 in 7.0 mi NNW 20.7 mph 24.2 mph N/A   Overcast
6:33 AM -13.0 °F -38.8 °F -18.4 °F 77% 30.63 in 7.0 mi NNW 19.6 mph - N/A   Overcast
6:52 AM -13.0 °F -37.5 °F -18.4 °F 77% 30.64 in 10.0 mi NW 17.3 mph 21.9 mph N/A   Overcast
7:13 AM -13.0 °F -36.8 °F -18.4 °F 77% 30.65 in 10.0 mi NW 16.1 mph - N/A   Overcast
7:32 AM -13.0 °F -36.0 °F -18.4 °F 77% 30.66 in 7.0 mi NW 15.0 mph - N/A   Overcast
7:52 AM -13.0 °F -35.2 °F -18.4 °F 77% 30.66 in 7.0 mi NW 13.8 mph - N/A   Overcast
8:13 AM -13.0 °F -33.4 °F -18.4 °F 77% 30.67 in 5.0 mi NW 11.5 mph - N/A   Haze
8:32 AM -13.0 °F -33.4 °F -18.4 °F 77% 30.67 in 7.0 mi WNW 11.5 mph - N/A   Overcast
8:52 AM -11.2 °F -29.0 °F -16.6 °F 77% 30.68 in 3.0 mi WNW 9.2 mph - N/A   Haze
9:13 AM -11.2 °F -30.1 °F -16.6 °F 77% 30.69 in 2.0 mi WNW 10.4 mph - N/A   Haze
9:32 AM -11.2 °F -32.9 °F -16.6 °F 77% 30.69 in 2.0 mi NW 13.8 mph - N/A   Haze
9:52 AM -9.4 °F -29.8 °F -16.6 °F 71% 30.69 in 1.8 mi NW 12.7 mph 16.1 mph N/A   Haze
10:13 AM -9.4 °F -32.1 °F -14.8 °F 77% 30.69 in 4.0 mi WNW 16.1 mph - N/A   Haze
10:32 AM -9.4 °F -30.6 °F -14.8 °F 77% 30.70 in 4.0 mi NW 13.8 mph - N/A   Haze
10:53 AM -7.6 °F -29.1 °F -14.8 °F 71% 30.70 in 10.0 mi WNW 15.0 mph 18.4 mph N/A   Mostly Cloudy
11:13 AM -7.6 °F -27.5 °F -13.0 °F 77% 30.70 in 10.0 mi WNW 12.7 mph 18.4 mph N/A   Scattered Clouds
11:32 AM -5.8 °F -26.0 °F -11.2 °F 77% 30.69 in 10.0 mi WNW 13.8 mph - N/A   Scattered Clouds
11:53 AM -5.8 °F -25.2 °F -11.2 °F 77% 30.68 in 10.0 mi WNW 12.7 mph - N/A   Clear
12:13 PM -5.8 °F -26.0 °F -11.2 °F 77% 30.67 in 10.0 mi West 13.8 mph - N/A   Clear
12:32 PM -4.0 °F -23.7 °F -9.4 °F 78% 30.66 in 10.0 mi West 13.8 mph - N/A   Clear
12:53 PM -2.2 °F -19.9 °F -9.4 °F 71% 30.66 in 10.0 mi West 11.5 mph - N/A   Clear
1:13 PM -2.2 °F -18.9 °F -9.4 °F 71% 30.65 in 10.0 mi West 10.4 mph - N/A   Clear
1:32 PM -0.4 °F -16.7 °F -7.6 °F 72% 30.64 in 10.0 mi West 10.4 mph - N/A   Clear
1:53 PM -0.4 °F -17.6 °F -7.6 °F 72% 30.63 in 10.0 mi West 11.5 mph - N/A   Clear
2:13 PM 1.4 °F -15.3 °F -7.6 °F 66% 30.62 in 10.0 mi West 11.5 mph - N/A   Clear
2:32 PM 1.4 °F -14.5 °F -5.8 °F 72% 30.61 in 10.0 mi WSW 10.4 mph - N/A   Clear
2:53 PM 1.4 °F -14.5 °F -5.8 °F 72% 30.61 in 10.0 mi WSW 10.4 mph - N/A   Clear
3:13 PM 1.4 °F -13.5 °F -5.8 °F 72% 30.60 in 10.0 mi WSW 9.2 mph - N/A   Clear
3:32 PM 3.2 °F -11.3 °F -4.0 °F 72% 30.60 in 10.0 mi WSW 9.2 mph - N/A   Clear
3:53 PM 3.2 °F -13.9 °F -4.0 °F 72% 30.59 in 10.0 mi WSW 12.7 mph - N/A   Clear
4:13 PM 1.4 °F -16.9 °F -5.8 °F 72% 30.58 in 10.0 mi WSW 13.8 mph - N/A   Clear
4:32 PM 1.4 °F -14.5 °F -5.8 °F 72% 30.57 in 10.0 mi WSW 10.4 mph - N/A   Clear
4:53 PM 1.4 °F -14.5 °F -5.8 °F 72% 30.57 in 10.0 mi SW 10.4 mph - N/A   Clear
5:13 PM -0.4 °F -16.7 °F -5.8 °F 78% 30.55 in 10.0 mi SW 10.4 mph - N/A   Clear
5:32 PM -0.4 °F -17.6 °F -5.8 °F 78% 30.54 in 10.0 mi SW 11.5 mph - N/A   Clear
5:53 PM -0.4 °F -14.7 °F -5.8 °F 78% 30.53 in 10.0 mi SW 8.1 mph - N/A   Clear
6:13 PM -0.4 °F -13.4 °F -5.8 °F 78% 30.52 in 10.0 mi SSW 6.9 mph - N/A   Clear
6:32 PM -0.4 °F -14.7 °F -5.8 °F 78% 30.50 in 10.0 mi SSW 8.1 mph - N/A   Clear
6:53 PM -0.4 °F -15.7 °F -5.8 °F 78% 30.49 in 10.0 mi SSW 9.2 mph - N/A   Clear
7:13 PM -0.4 °F -16.7 °F -5.8 °F 78% 30.46 in 10.0 mi SSW 10.4 mph - N/A   Clear
7:32 PM -0.4 °F -18.4 °F -5.8 °F 78% 30.45 in 10.0 mi SSW 12.7 mph - N/A   Clear
7:53 PM 1.4 °F -16.9 °F -5.8 °F 72% 30.42 in 10.0 mi SSW 13.8 mph - N/A   Clear
8:13 PM 1.4 °F -16.9 °F -5.8 °F 72% 30.40 in 10.0 mi SSW 13.8 mph - N/A   Clear
8:32 PM 1.4 °F -17.6 °F -5.8 °F 72% 30.38 in 10.0 mi SSW 15.0 mph - N/A   Clear
8:53 PM 1.4 °F -17.6 °F -4.0 °F 78% 30.36 in 10.0 mi South 15.0 mph - N/A   Clear
9:12 PM 3.2 °F -14.6 °F -5.8 °F 66% 30.34 in 10.0 mi South 13.8 mph - N/A   Clear
9:33 PM 3.2 °F -15.3 °F -5.8 °F 66% 30.31 in 10.0 mi South 15.0 mph 20.7 mph N/A   Clear
9:53 PM 3.2 °F -16.5 °F -5.8 °F 66% 30.29 in 10.0 mi South 17.3 mph 20.7 mph N/A   Clear
10:12 PM 3.2 °F -15.3 °F -5.8 °F 66% 30.27 in 10.0 mi South 15.0 mph 23.0 mph N/A   Clear
10:33 PM 3.2 °F -16.5 °F -5.8 °F 66% 30.25 in 10.0 mi South 17.3 mph - N/A   Clear
10:53 PM 3.2 °F -15.9 °F -5.8 °F 66% 30.22 in 10.0 mi South 16.1 mph 23.0 mph N/A   Clear
11:12 PM 6.8 °F -14.3 °F -5.8 °F 56% 30.19 in 10.0 mi SSW 23.0 mph 27.6 mph N/A   Clear
11:33 PM 8.6 °F -12.7 °F -4.0 °F 57% 30.17 in 10.0 mi SSW 25.3 mph 32.2 mph N/A   Clear
11:52 PM 8.6 °F -12.3 °F -4.0 °F 57% 30.14 in 10.0 mi SSW 24.2 mph 28.8 mph N/A   Clear